User: anonymous   Login
Location: Unspecified
(0.0000°N, 0.0000°E)
Time: 11:06:05
(UTC+00:00)
Language:

BRICSAT 2 - Orbit

View from above orbital plane
View from above orbital plane
View from above satellite
View from above satellite

Ground track
Ground track

The orbit data is extracted from the following two-line orbital elements,

1 44355U 19036S   21343.16037175  .00039316 -58001-5  30717-3 0  9996
2 44355  28.5247 315.1892 0199972 152.1555 208.9912 15.47517668136338
Epoch (UTC): 09 December 2021 03:50:56
Eccentricity: 0.0199972
inclination: 28.5247°
perigee height: 288 km
apogee height: 560 km
right ascension of ascending node: 315.1892°
argument of perigee: 152.1555°
revolutions per day: 15.47517668
mean anomaly at epoch: 208.9912°
orbit number at epoch: 13633

The dashed part of the orbit path shows where the satellite is in the earth's shadow,  

DLR